Location: Northwest Suburban Astronomers
(42.1100°N, 88.0300°W)
Time: 04:32:21
(UTC-06:00)

Daily predictions for brighter satellites

Satellite Brightness Start Highest point End
(mag) Time Altitude Azimuth Time Altitude Azimuth Time Altitude Azimuth
SL-16 R/B 4.3 03:40:07 19° NE 03:40:07 19° NE 03:41:42 10° NNE
CZ-3 R/B 4.4 03:49:57 10° SW 04:02:36 20° S 04:08:15 10° SE
USA 215 4.1 04:06:26 10° ENE 04:12:39 45° SE 04:16:25 23° S
Cosmos 1238 Rocket 4.1 04:15:35 56° SE 04:15:35 56° SE 04:20:36 10° SSE
CENTAUR R/B 3.4 04:27:39 38° N 04:27:39 38° N 04:32:37 10° NNE
Cosmos 2369 Rocket 3.7 04:28:50 18° N 04:32:19 32° NE 04:37:23 10° ESE
Cosmos 921 Rocket 4.3 04:34:12 35° SSE 04:34:12 35° SSE 04:36:50 10° SSE
Cosmos 1603 4.0 04:28:48 12° S 04:34:00 64° ESE 04:39:37 10° NNE
Lacrosse 5 2.7 04:34:49 33° S 04:36:35 48° SE 04:41:30 10° NE
Okean 1 Rocket 4.4 04:40:01 10° SSE 04:44:07 39° E 04:48:12 10° NNE
Meteor 1-17 Rocket 4.5 04:40:01 10° SSW 04:45:33 82° W 04:51:06 10° N
Meteor 1-18 Rocket 4.2 04:47:22 62° W 04:47:35 63° W 04:53:26 10° S
Feng Yun 1-1 Rocket 4.1 04:42:51 10° N 04:48:27 73° WNW 04:53:53 10° SSW
COSMO-SKYMED 1 3.1 04:46:57 10° SSE 04:51:11 57° ENE 04:53:19 28° N
Meteor 1-20 Rocket 4.0 04:49:31 10° SSW 04:55:03 67° WNW 05:00:33 10° N
Cosmos 1943 4.3 04:52:51 10° S 04:58:10 45° ESE 05:03:30 10° NE
Lacrosse 4 Rocket 4.1 04:58:29 10° NNE 05:00:05 12° NE 05:01:39 10° ENE
NOAA 6 3.9 04:57:01 10° NNE 05:02:11 89° W 05:07:19 10° SSW
Okean 1-7 Rocket 4.3 04:58:49 12° N 05:02:45 53° E 05:07:01 10° SSE
Lacrosse 5 rocket 3.8 05:06:47 11° N 05:06:47 11° N 05:07:33 10° NNE
Cosmos 1300 Rocket 3.4 05:05:51 10° S 05:10:17 82° W 05:14:43 10° N
CRYOSAT 2 4.2 05:05:44 10° S 05:10:36 75° W 05:15:32 10° N
Nadezhda 3 Rocket 4.1 05:04:31 10° N 05:10:55 79° E 05:17:17 10° S
Tiangong 2 1.4 05:12:41 63° ENE 05:12:41 63° ENE 05:15:27 10° E
Transit 2A Rocket 4.4 05:12:19 47° NW 05:13:35 80° WSW 05:17:53 10° SSE
Cosmos 1943 Rocket 3.7 05:09:38 10° N 05:14:33 32° NE 05:19:26 10° ESE
Cosmos 1633 2.5 05:12:23 10° S 05:16:01 86° ESE 05:19:40 10° N
SL-16 R/B 3.5 05:22:03 21° NNW 05:22:03 21° NNW 05:25:08 10° N
SKYMED 3 4.5 05:16:55 10° S 05:21:14 67° WSW 05:23:42 25° NNW
Cosmos 1602 3.8 05:26:04 10° SSW 05:29:56 56° W 05:33:52 10° N
Cosmos 2074 Rocket 4.4 05:24:14 10° SW 05:30:00 38° WNW 05:35:47 10° N
Meteor 1-19 Rocket 4.2 05:25:36 10° NNW 05:31:27 75° W 05:37:11 10° S
Cosmos 44 3.6 05:28:19 10° SSW 05:33:41 79° ESE 05:38:54 10° NE
Cosmos 2341 Rocket 4.0 05:29:09 10° S 05:35:27 88° W 05:41:45 10° N
Cosmos 2056 Rocket 3.9 05:33:57 26° NW 05:36:14 40° WSW 05:40:58 10° S
Meteor 2-13 Rocket 4.4 05:31:42 10° SSW 05:37:49 68° W 05:43:59 10° N
SKYMED 2 3.9 05:35:12 10° S 05:39:18 42° W 05:41:57 20° NW
Meteor 1-11 Rocket 3.7 05:34:18 10° SSW 05:40:06 65° WNW 05:45:49 10° N
Cosmos 2263 4.3 05:34:29 10° NNW 05:40:08 76° ENE 05:45:44 10° SSE
USA 129 2.2 05:39:58 10° SSE 05:42:02 57° ENE 05:42:47 32° N
Abrixas rocket 2.2 05:43:16 30° W 05:44:46 68° NNW 05:48:07 10° ENE
Meteor 1-28 Rocket 3.2 05:41:43 10° S 05:45:28 63° W 05:49:16 10° NNW
Cosmos 1346 Rocket 4.4 05:47:10 17° WSW 05:47:10 17° WSW 05:48:51 10° SW
Ariane Rocket 3.0 05:44:28 10° N 05:49:28 61° WNW 05:54:26 10° SSW
YAOGAN 3 4.5 05:49:44 10° N 05:54:07 82° WNW 05:58:28 10° SSW
USA 215 3.4 05:49:22 10° NE 05:55:44 57° NNW 06:02:05 10° WSW
SL-24 R/B 4.5 05:51:49 10° N 05:57:14 59° WNW 06:01:48 10° SSW
Cosmos 1340 2.8 05:54:23 10° N 05:58:11 75° E 06:01:57 10° SSE
Meteor 1-23 Rocket 4.1 05:52:54 10° NNW 05:58:27 71° W 06:03:58 10° S
CSL-04 Rocket 3.7 05:54:48 10° N 06:00:18 64° WNW 06:05:43 10° SSW
Okean 2 3.3 05:58:36 10° N 06:02:49 84° W 06:06:58 10° S
Cosmos 2154 Rocket 4.3 05:57:07 10° SW 06:02:55 41° WNW 06:08:45 10° N
CZ-2C R/B 3.1 05:58:39 10° NNE 06:03:48 61° E 06:08:47 10° S
CSL-04 Debris 4.1 05:59:23 10° N 06:04:50 68° WNW 06:10:15 10° SSW
Cosmos 1025 Rocket 3.3 06:02:24 10° NNW 06:06:36 46° W 06:10:46 10° SSW
YAOGAN 1 3.2 06:04:40 10° NNE 06:08:58 60° E 06:13:14 10° S
Meteor 2-4 Rocket 3.9 06:03:45 10° NNW 06:09:02 49° W 06:14:28 10° SSW
IDEFIX/ARIANE 42P 3.0 06:05:11 10° NNE 06:10:23 67° ESE 06:15:33 10° S
Cosmos 2369 Rocket 2.7 06:11:07 10° NW 06:16:24 39° WSW 06:21:37 10° S
Cosmos 44 Rocket 4.2 06:11:55 10° WSW 06:16:28 31° NW 06:21:00 10° NNE
CZ-4 R/B 1.2 06:13:57 10° N 06:17:54 70° WNW 06:21:46 10° SSW
CENTAUR R/B 4.3 06:14:52 11° NW 06:18:43 16° NNW 06:23:05 10° NNE
Meteor 1-5 Rocket 4.1 06:14:13 10° SSW 06:19:30 61° WNW 06:24:46 10° N
Lacrosse 5 2.5 06:14:58 10° W 06:19:41 36° NNW 06:24:25 10° NE
Meteor 2-19 Rocket 4.4 06:13:54 10° SSW 06:20:01 76° W 06:26:08 10° N
Cosmos 1536 3.9 06:17:46 10° SW 06:21:03 24° WNW 06:24:23 10° NNW
Okean 1 Rocket 4.4 06:19:09 10° WSW 06:22:11 18° WNW 06:25:13 10° NNW
SL-27 R/B 4.5 06:20:16 10° S 06:23:30 34° ESE 06:26:48 10° NE
Cosmos 1900 4.5 06:19:32 10° NW 06:24:21 58° WSW 06:29:11 10° SSE
Cosmos 1544 Rocket 3.6 06:20:45 10° SSW 06:25:03 61° W 06:29:25 10° N
Cosmos 1452 Rocket 4.2 06:20:43 10° NW 06:25:30 36° W 06:30:15 10° SSW
ATLAS 5 CENTAUR R/B 4.4 06:23:11 10° N 06:25:58 13° NNE 06:28:52 10° NE
CORIOLIS 4.4 06:21:35 10° NNE 06:26:58 78° ESE 06:32:18 10° S
COSMO-SKYMED 1 4.4 06:25:40 10° WSW 06:27:42 13° W 06:29:45 10° WNW
Cosmos 1484 Rocket 4.0 06:25:17 10° NNE 06:28:57 45° E 06:32:38 10° S
SJ-12 4.0 06:25:01 10° N 06:29:07 60° WNW 06:33:13 10° SSW
AQUARIUS 4.1 06:29:03 10° N 06:33:32 68° WNW 06:37:59 10° SSW
SL-8 Rocket 4.2 06:28:06 10° SSW 06:34:09 51° WNW 06:40:14 10° N
Lacrosse 4 Rocket 1.4 06:35:16 10° NNW 06:39:26 86° WSW 06:43:29 10° SSE
Cosmos 1943 4.0 06:37:35 10° WSW 06:42:23 28° NW 06:47:14 10° N
ATLAS 3B R/B 4.5 06:38:02 10° NNW 06:43:02 20° NNE 06:47:50 10° ENE
